Laurinburg-Maxton, NC

1:31 AM EST on January 17, 2018 (GMT -0500)
Laurinburg-Maxton

Weather History for KMEB - March, 2014

Change the Weather History Date:

Thursday, March 6, 2014

  Actual Average (KHFF) Record (KHFF)
Temperature  
Mean Temperature 36 °F -  
Max Temperature 43 °F 55 °F 71 °F (2009)
Min Temperature 30 °F 36 °F 25 °F (2012)
Degree Days  
Heating Degree Days 28    
Moisture  
Dew Point 29 °F    
Average Humidity 75    
Maximum Humidity 97    
Minimum Humidity 51    
Precipitation  
Precipitation 0.72 in - - ()
Sea Level Pressure  
Sea Level Pressure 30.19 in    
Wind  
Wind Speed 15 mph (NE)    
Max Wind Speed 25 mph    
Max Gust Speed 39 mph    
Visibility 8 miles    
Events Rain    
Averages and records for this station are not official NWS values.
T = Trace of Precipitation, MM = Missing Value Source: NWS Daily Summary

Daily Weather History Graph

Daily Weather History Graph

Search for Another Location

Airport or City:

Trip Planner

Search our weather history database for the weather conditions in past years. The results will help you decide how hot, cold, wet, or windy it might be!

Date:

Astronomy

Mar. 06, 2014 Rise Set
Actual Time 6:40 AM EST 6:17 PM EST
Civil Twilight 6:15 AM EST 6:42 PM EST
Nautical Twilight 5:45 AM EST 7:12 PM EST
Astronomical Twilight 5:16 AM EST 7:41 PM EST
Moon 10:00 AM EST (3/6) No Moon Set
Length of Visible Light 12h 27m
Length of Day
11h 37m
Waxing Crescent, 32% of the Moon is Illuminated
Mar 6
Waxing Crescent
Mar 8
First Quarter
Mar 16
Full
Mar 23
Last Quarter
Mar 30
New

Hourly Weather History & Observations

Time (EST) Temp. Windchill Dew Point Humidity Pressure Visibility Wind Dir Wind Speed Gust Speed Precip Events Conditions
12:52 AM 32.0 °F 27.5 °F 24.1 °F 73% 30.29 in 10.0 mi NNE 4.6 mph - N/A   Clear
1:52 AM 30.0 °F 22.4 °F 23.0 °F 75% 30.28 in 10.0 mi NE 8.1 mph - N/A   Clear
2:52 AM 30.0 °F 20.5 °F 24.1 °F 79% 30.25 in 10.0 mi NE 11.5 mph - N/A   Clear
3:52 AM 30.9 °F 21.7 °F 23.0 °F 72% 30.25 in 10.0 mi ENE 11.5 mph - N/A   Clear
4:52 AM 30.9 °F 22.2 °F 21.0 °F 67% 30.28 in 10.0 mi NE 10.4 mph - N/A   Clear
5:52 AM 30.9 °F 20.7 °F 19.9 °F 64% 30.27 in 10.0 mi NE 13.8 mph - N/A   Clear
6:52 AM 30.9 °F 19.4 °F 19.0 °F 61% 30.29 in 10.0 mi NE 17.3 mph - N/A   Clear
7:52 AM 33.1 °F 23.0 °F 21.0 °F 61% 30.32 in 10.0 mi NE 15.0 mph - N/A   Clear
8:52 AM 35.1 °F 24.8 °F 21.9 °F 59% 30.31 in 10.0 mi NE 17.3 mph - N/A   Partly Cloudy
9:52 AM 39.0 °F 29.3 °F 23.0 °F 53% 30.31 in 10.0 mi NE 19.6 mph - N/A   Overcast
10:52 AM 41.0 °F 31.6 °F 25.0 °F 53% 30.28 in 10.0 mi NE 20.7 mph - N/A   Mostly Cloudy
11:52 AM 43.0 °F 34.5 °F 26.1 °F 51% 30.28 in 10.0 mi NE 19.6 mph - N/A   Overcast
12:52 PM 43.0 °F 34.8 °F 27.0 °F 53% 30.24 in 10.0 mi NE 18.4 mph - N/A   Overcast
1:52 PM 43.0 °F 34.2 °F 28.0 °F 56% 30.19 in 10.0 mi NE 20.7 mph 27.6 mph N/A   Overcast
2:14 PM 43.0 °F 34.8 °F 28.9 °F 58% 30.17 in 10.0 mi NE 18.4 mph 25.3 mph N/A   Overcast
2:52 PM 43.0 °F 33.8 °F 30.0 °F 60% 30.17 in 10.0 mi NE 23.0 mph 31.1 mph N/A   Overcast
3:52 PM 39.0 °F 28.5 °F 34.0 °F 82% 30.16 in 4.0 mi NE 23.0 mph 31.1 mph 0.03 in Rain Light Rain
4:52 PM 37.9 °F 27.9 °F 35.1 °F 89% 30.16 in 4.0 mi NE 19.6 mph - 0.04 in Rain Light Rain
5:43 PM 37.0 °F 27.4 °F 35.1 °F 93% 30.13 in 2.5 mi NE 17.3 mph - 0.09 in Rain Rain
5:52 PM 37.0 °F 26.4 °F 35.1 °F 93% 30.14 in 2.5 mi NE 20.7 mph - 0.11 in Rain Rain
6:00 PM 37.0 °F 27.0 °F 35.1 °F 93% 30.13 in 3.0 mi NE 18.4 mph 26.5 mph 0.02 in Rain Rain
6:14 PM 36.0 °F 23.9 °F 35.1 °F 97% 30.12 in 4.0 mi NE 25.3 mph 28.8 mph 0.05 in Rain Rain
6:52 PM 36.0 °F 24.7 °F 34.0 °F 93% 30.11 in 5.0 mi NE 21.9 mph 32.2 mph 0.13 in Rain Rain
7:52 PM 35.1 °F 23.3 °F 34.0 °F 96% 30.10 in 6.0 mi NE 23.0 mph 32.2 mph 0.09 in Rain Rain
8:52 PM 35.1 °F 23.0 °F 34.0 °F 96% 30.06 in 5.0 mi ENE 24.2 mph 34.5 mph 0.09 in Rain Light Rain
9:52 PM 36.0 °F 25.0 °F 35.1 °F 97% 30.04 in 5.0 mi NE 20.7 mph 34.5 mph 0.10 in Rain Rain
10:52 PM 37.0 °F 25.4 °F 35.1 °F 93% 29.97 in 8.0 mi NE 25.3 mph 36.8 mph 0.08 in   Overcast
11:52 PM 37.0 °F 25.4 °F 35.1 °F 93% 29.94 in 6.0 mi NE 25.3 mph 39.1 mph 0.05 in   Overcast